Wetbulb
52.85 52.50 52.66 52.50 52.62 52.95 52.85 52.65 52.57 52.43 52.70 53.68 54.85 56.24 56.41 57.79 57.42 57.38 61.16 63.89 61.42 60.15 61.37 61.68 62.02 60.14 60.88 61.53 58.72 60.59 59.30 60.06 60.19 56.69 56.34 57.95 57.06 58.40 56.73 58.05 55.71 55.27 53.48 52.96 54.18 51.60 49.64 63.29 63.07 59.90 63.45 66.08 67.10 68.66
52.31 52.62 52.31 52.31 52.41 52.78 52.58 52.46 52.69 53.33 52.82 54.79 56.42 57.10 56.36 57.64 57.32 56.95 58.07 64.53 63.24 59.57 60.43 63.04 63.48 64.69 63.65 63.40 61.21 61.94 59.80 58.89 62.08 59.64 59.43 60.94 57.69 58.59 58.33 54.27 60.33 55.94 59.48 58.79 57.33 58.23 64.24 65.87 65.14 66.56 67.25 67.07 68.40 70.15
52.01 51.81 51.85 51.91 52.01 52.24 52.24 51.94 52.19 52.36 52.74 54.33 56.48 57.76 56.53 57.58 56.76 56.33 57.22 59.32 61.21 58.73 59.55 60.58 60.53 64.05 64.92 64.10 65.70 58.68 62.01 61.18 61.98 63.26 61.66 61.06 56.58 60.46 56.36 58.61 59.55 61.54 62.72 61.71 60.51 62.79 63.77 64.89 66.92 68.23 68.22 68.28 69.86 71.19
51.18 51.41 51.51 51.35 51.34 51.87 52.06 51.83 51.96 52.13 52.48 53.74 55.71 55.97 56.01 55.47 54.84 54.90 55.86 61.03 60.00 59.21 55.59 59.62 63.62 62.44 65.76 65.82 65.10 63.76 62.44 62.64 63.56 63.66 60.89 59.69 57.62 60.32 59.60 59.22 59.13 61.93 62.40 61.29 60.32 63.57 64.12 65.14 66.61 66.87 66.20 66.30 66.31 67.61
51.05 50.86 50.84 50.99 51.24 51.53 51.83 51.78 52.04 52.04 52.15 52.96 54.14 55.02 54.67 54.43 53.98 55.22 58.23 59.84 60.82 58.44 55.87 58.18 61.49 62.89 63.86 64.13 64.44 64.94 62.62 61.60 61.54 59.82 58.62 57.49 61.65 59.75 61.71 60.23 57.66 61.27 61.06 59.55 58.74 64.84 64.65 64.80 67.34 67.38 66.36 65.47 65.65 65.36
51.07 51.19 51.13 51.18 51.27 51.33 51.62 51.70 52.08 51.95 52.16 52.37 53.09 54.53 54.73 54.37 53.94 56.04 55.90 58.61 60.49 60.97 56.50 54.30 62.36 60.91 62.48 63.05 63.55 63.25 63.82 62.09 62.66 60.88 59.78 61.89 61.74 60.53 57.35 55.70 59.39 61.15 61.70 62.10 62.04 65.00 65.29 65.56 65.90 66.66 66.71 67.26 66.84 66.07
51.22 51.49 51.46 51.42 51.46 51.52 51.51 51.49 51.89 51.95 52.43 52.89 53.20 53.90 54.21 53.54 53.77 52.93 50.88 53.80 55.06 60.15 56.64 54.85 56.33 60.88 62.38 62.54 62.60 62.72 64.15 62.63 62.06 60.81 59.46 59.69 60.08 59.42 58.06 55.21 59.18 61.25 62.78 62.73 63.78 64.14 63.10 64.04 63.86 65.29 65.43 66.32 65.28 66.66
51.63 51.68 51.86 51.84 51.90 51.75 51.45 51.39 51.85 51.74 52.01 52.47 52.62 53.16 53.48 53.19 52.81 52.76 57.11 52.72 53.23 56.84 58.36 54.06 55.76 57.73 62.10 59.05 58.47 62.45 60.77 61.54 61.19 60.54 62.21 59.29 60.32 59.79 55.99 60.16 61.51 61.52 61.75 62.06 63.18 64.37 64.15 65.09 64.79 64.27 65.22 66.14 65.95 66.11
51.43 51.63 51.63 51.81 51.73 51.67 51.46 51.48 51.13 51.72 51.76 52.14 52.62 53.53 54.19 51.93 51.37 55.27 56.15 54.86 54.28 55.34 53.73 54.72 53.71 53.43 61.00 60.02 60.64 59.74 61.50 57.61 62.18 58.32 59.03 59.90 58.20 55.86 59.24 61.53 61.09 61.42 62.13 62.48 62.69 63.78 64.34 63.76 63.60 63.83 64.37 66.00 65.60 66.10
51.22 51.42 51.78 51.80 51.61 51.49 51.32 51.52 51.14 51.56 51.48 51.87 52.79 51.17 48.82 52.81 55.28 56.38 54.68 53.55 51.36 52.23 52.49 51.58 58.36 56.24 59.46 58.84 57.63 57.89 58.95 57.30 55.38 58.09 61.18 57.15 56.70 61.54 63.18 62.99 63.46 62.96 63.86 64.04 62.32 62.14 63.52 63.57 64.55 64.71 65.18 66.65 66.73 66.71
51.00 51.19 51.36 51.80 51.51 51.41 51.36 51.71 51.10 51.21 51.39 51.16 48.67 48.32 54.62 55.49 54.45 51.33 48.53 48.39 49.75 48.25 50.18 52.08 56.73 56.06 60.94 56.72 56.96 59.26 56.70 57.45 53.09 56.70 56.14 55.41 55.23 60.25 62.17 61.77 62.46 62.80 63.87 64.34 65.01 65.63 66.04 65.76 65.10 64.70 65.28 66.87 67.07 67.65
50.98 51.04 51.07 51.32 51.36 51.38 51.26 51.72 50.85 50.29 50.49 50.02 49.88 52.76 54.41 52.19 48.99 44.20 43.91 47.56 47.78 47.07 52.41 53.04 53.93 56.57 59.16 61.53 57.83 58.05 55.72 56.68 51.96 59.29 55.37 52.89 58.55 61.23 60.40 60.61 61.50 62.54 63.07 63.41 64.34 64.92 66.05 66.53 66.23 66.11 66.10 66.14 67.01 68.08
50.85 50.87 50.81 51.06 51.26 51.13 51.14 51.43 50.85 50.98 50.99 51.65 49.24 46.95 47.91 47.55 39.72 38.78 36.76 41.36 43.97 49.04 52.24 53.46 53.26 55.27 57.51 58.23 57.04 56.13 53.12 53.46 59.77 54.74 53.07 56.43 59.20 58.78 59.20 59.85 60.28 61.26 61.73 62.84 63.72 64.61 65.48 66.04 67.06 67.02 66.68 67.36 67.35 67.47
50.80 50.60 50.66 50.81 50.97 51.06 51.13 51.02 50.78 50.73 47.75 44.42 43.12 37.31 41.47 40.94 43.17 42.23 45.01 45.50 47.64 47.75 49.27 53.62 54.48 52.96 54.78 53.79 54.52 48.90 53.19 55.35 50.91 50.64 51.91 56.57 57.45 57.69 58.02 58.40 59.06 58.80 59.85 61.17 62.25 63.21 64.10 64.10 65.55 66.80 67.49 68.03 67.63 67.21
50.24 50.43 50.50 50.52 50.95 51.02 50.60 50.58 50.26 50.23 46.15 41.73 43.31 37.04 41.02 45.80 49.44 49.88 50.24 49.86 48.75 50.68 49.90 51.67 52.25 55.05 53.12 51.83 53.88 51.95 47.34 45.55 48.15 50.49 54.34 56.45 56.96 56.84 56.68 56.97 56.98 57.85 59.18 60.67 60.95 61.85 62.93 64.09 65.11 65.73 67.11 67.81 68.22 67.99
50.04 49.77 49.49 50.64 50.64 50.56 50.13 49.89 49.79 48.38 45.22 41.47 42.15 39.82 43.50 45.24 45.75 47.79 48.77 49.15 51.37 50.00 50.57 51.41 49.75 48.34 48.25 50.27 47.35 48.21 46.70 45.07 50.06 51.41 52.00 52.92 54.23 55.69 55.73 56.05 56.23 57.49 58.42 59.37 60.07 60.00 61.65 63.04 64.01 65.08 66.76 68.03 68.21 68.29
49.68 47.57 50.49 50.77 50.52 50.28 49.47 47.77 46.18 42.55 40.65 38.94 39.97 44.99 44.14 43.17 46.59 47.29 46.92 46.69 50.44 49.98 45.79 47.87 44.99 43.56 48.13 46.37 47.70 49.57 48.85 50.64 53.24 53.21 54.79 56.13 56.07 56.22 56.48 56.20 56.68 57.55 57.63 57.59 57.87 58.89 59.79 62.00 63.53 64.54 65.33 66.63 67.43 68.24
47.44 49.34 50.58 50.46 49.80 48.20 46.95 46.06 43.08 40.68 38.11 40.21 39.77 42.95 46.23 48.75 47.25 48.43 46.76 47.07 46.70 46.46 47.79 44.11 47.69 44.99 43.21 42.24 43.32 47.31 53.11 54.63 55.05 55.00 55.27 56.42 57.06 57.29 56.81 56.45 57.41 57.68 57.80 57.39 57.68 58.40 58.82 59.70 60.59 62.14 63.50 65.69 66.42 67.59
48.83 49.98 50.41 49.53 48.68 46.14 41.86 41.94 42.89 36.69 39.18 42.65 43.90 43.96 45.67 47.21 49.02 47.94 45.22 47.96 47.96 47.29 45.70 47.52 43.85 43.62 45.23 48.96 47.16 48.51 50.44 50.70 49.79 52.33 53.73 55.51 56.60 56.79 56.95 56.61 56.71 56.57 55.79 56.33 56.70 57.08 57.77 58.96 59.40 60.66 62.16 63.45 63.68 65.15
49.80 49.39 50.04 49.18 48.52 43.81 40.03 40.71 44.94 41.43 38.47 40.91 43.35 43.54 43.17 44.59 46.88 47.31 46.17 46.71 45.42 44.28 45.71 44.49 44.65 47.18 48.15 49.93 50.24 49.35 50.13 51.40 52.09 50.22 50.03 51.78 54.10 55.31 55.66 55.90 56.28 56.44 56.47 56.68 56.92 50.59 57.51 57.52 58.57 60.43 61.48 60.95 61.17 63.21
48.83 49.22 49.05 48.46 45.91 45.29 41.14 40.72 40.31 41.32 41.81 41.08 43.88 43.87 43.24 45.62 43.28 43.52 43.77 46.76 44.10 41.40 41.76 47.48 48.68 50.55 52.75 53.34 55.24 53.97 53.21 53.47 52.02 51.36 51.49 50.79 54.22 55.94 56.60 56.44 56.48 56.45 55.67 55.68 55.51 55.57 53.26 57.12 58.27 59.12 60.14 60.56 61.83 62.94
47.88 48.71 46.84 47.18 43.78 43.56 41.74 42.88 40.30 42.89 41.74 42.19 43.27 44.63 43.05 42.42 43.25 44.71 47.82 44.61 44.70 46.55 47.77 49.60 51.47 53.62 51.86 52.07 52.27 54.23 54.51 55.64 55.67 53.77 48.86 50.16 52.53 53.45 54.29 55.32 55.65 55.44 55.85 56.22 56.35 56.20 56.81 57.77 58.60 58.85 59.28 60.07 58.10 61.91
48.14 47.20 44.31 44.69 40.08 38.35 37.80 45.50 40.42 42.13 38.75 40.44 44.04 41.59 42.33 43.40 46.56 49.34 43.47 45.10 45.77 49.15 49.11 49.06 51.27 53.40 52.86 54.42 55.06 55.05 55.38 54.69 52.45 53.04 53.50 53.62 54.20 54.94 55.03 55.51 56.05 55.54 55.34 56.27 57.95 57.97 57.77 52.96 56.41 57.76 59.55 59.55 59.73 61.53
47.85 42.70 39.80 39.61 38.86 36.42 42.39 39.59 42.62 40.50 40.98 40.16 39.67 38.60 41.75 45.07 47.67 43.87 41.52 46.31 48.77 50.94 49.67 50.15 50.26 50.24 50.84 51.09 50.27 50.65 52.13 53.44 52.81 53.12 54.11 53.70 53.21 53.81 55.39 56.11 56.55 57.25 57.82 58.06 57.65 57.90 58.51 58.47 52.32 58.58 59.11 59.87 60.37 60.37
37.80 38.02 38.42 33.66 40.71 37.79 36.52 36.94 38.08 39.09 36.40 38.80 37.87 39.41 42.61 47.19 42.83 42.35 42.62 46.54 49.12 50.70 52.24 51.38 50.90 50.90 49.32 49.59 50.81 51.91 54.19 53.09 51.75 51.62 53.93 54.89 54.85 55.08 55.48 56.24 56.85 57.46 58.20 57.20 56.86 57.18 57.87 58.69 58.73 58.72 58.77 59.20 59.40 59.67
33.23 38.06 35.87 37.27 37.38 36.51 37.45 35.06 36.27 36.78 38.53 37.87 39.82 43.60 45.07 42.93 39.10 38.51 44.63 47.94 50.08 51.97 52.84 52.13 52.43 52.53 51.85 53.34 52.99 53.16 54.00 55.84 55.71 54.07 56.17 56.88 56.36 55.41 54.62 54.23 54.41 55.24 57.88 58.57 57.94 57.31 57.74 58.29 58.34 58.72 59.02 58.26 51.34 57.81
33.93 35.39 40.61 45.18 43.16 41.83 39.97 41.22 41.94 39.66 38.29 37.97 42.22 41.71 42.11 37.64 38.61 44.17 50.35 52.24 52.19 52.99 54.05 54.05 54.31 54.51 52.96 53.96 55.09 56.09 56.59 56.53 56.01 55.99 57.06 57.22 57.54 57.71 56.54 54.68 54.29 56.24 58.66 58.50 58.81 58.48 58.04 58.51 58.41 58.75 58.74 58.69 59.26 59.06
39.31 40.25 36.02 39.09 39.13 41.27 36.22 35.98 37.58 38.33 41.46 46.13 44.99 39.80 39.20 40.27 41.98 49.20 51.33 53.10 54.14 54.56 54.81 55.58 55.91 55.31 55.08 55.84 56.47 56.23 55.58 56.20 56.16 56.34 56.65 57.06 57.66 58.22 58.96 59.72 59.66 47.75 57.36 59.44 59.16 59.32 59.18 59.19 58.87 58.98 58.47 58.02 58.23 58.97
39.48 42.63 42.09 39.27 39.37 40.53 39.66 40.86 42.64 45.39 47.71 46.70 43.27 43.38 43.94 49.55 50.84 50.28 51.73 53.64 54.71 53.41 51.95 52.08 53.21 54.44 54.34 54.85 55.21 55.61 55.29 54.53 52.80 51.31 51.40 51.14 52.45 54.02 57.73 58.79 58.46 58.68 58.90 59.06 45.75 52.47 57.62 57.96 58.11 58.97 57.97 57.28 57.93 58.74
41.11 45.12 41.53 40.40 39.18 39.34 43.99 45.92 45.31 48.08 49.82 48.85 49.50 48.44 48.41 49.35 52.30 54.72 52.61 53.64 52.11 51.52 52.51 52.88 53.03 53.36 52.57 53.04 53.62 54.18 57.28 57.77 57.23 54.71 52.97 53.46 55.02 57.18 57.37 57.49 57.69 58.14 58.51 58.87 58.70 59.70 44.91 53.29 54.02 58.00 56.78 57.30 56.17 54.06
45.39 44.40 41.76 42.22 41.15 44.40 46.52 47.70 48.27 48.67 48.59 47.78 48.83 47.16 46.67 48.65 50.68 53.99 54.18 54.99 54.37 54.25 53.42 52.58 52.67 53.38 53.29 53.31 54.65 53.29 52.86 57.20 56.69 56.07 56.32 56.22 56.45 56.97 57.08 57.16 57.46 58.08 58.59 58.97 59.03 59.23 58.79 57.97 57.83 57.21 56.53 55.81 55.35 52.97
43.55 41.04 40.63 39.25 41.07 46.17 47.00 45.54 45.56 45.42 46.27 46.12 46.25 48.74 48.45 47.70 46.24 50.34 54.75 54.70 53.70 52.68 49.20 51.60 52.51 53.28 55.77 56.73 56.73 56.54 43.32 55.19 56.14 56.61 55.87 56.77 56.83 57.78 57.99 57.86 57.54 57.39 57.26 58.19 58.76 58.10 56.13 55.72 55.53 54.30 53.81 55.16 54.43 53.79
41.90 42.65 42.68 41.68 41.41 41.71 45.42 44.34 43.37 43.21 43.83 42.88 43.70 45.60 45.87 46.16 44.38 51.27 55.36 55.64 53.62 53.11 52.77 53.70 54.13 54.95 54.79 54.41 54.77 54.51 49.51 55.46 52.64 44.24 44.50 43.11 40.28 45.12 53.52 57.05 57.29 57.36 56.64 56.42 56.83 57.28 56.36 55.16 54.03 53.15 53.27 52.49 52.75 53.29
MSLP
1023.88 1023.70 1023.58 1023.38 1023.09 1022.68 1022.36 1021.99 1021.64 1021.21 1020.76 1020.32 1019.82 1019.30 1018.97 1018.74 1018.50 1018.03 1016.07 1015.69 1014.94 1012.58 1010.63 1010.35 1009.83 1009.21 1008.80 1008.38 1007.40 1007.65 1007.44 1006.93 1006.19 1005.48 1004.97 1004.76 1004.61 1005.05 1004.88 1004.90 1004.58 1004.27 1004.05 1003.91 1004.17 1004.24 1004.33 1004.99 1004.80 1004.60 1005.07 1005.22 1005.12 1005.18
1023.53 1023.37 1023.23 1023.08 1022.83 1022.53 1022.13 1021.80 1021.40 1021.00 1020.53 1020.03 1019.44 1018.97 1018.69 1018.55 1018.43 1018.30 1016.67 1015.68 1015.56 1014.32 1011.27 1011.16 1010.56 1010.12 1009.61 1009.00 1008.64 1008.13 1007.79 1007.43 1006.92 1006.23 1006.01 1005.69 1005.28 1005.54 1005.21 1004.57 1005.65 1004.85 1004.37 1003.89 1004.17 1004.17 1005.41 1005.59 1005.47 1005.51 1005.53 1005.31 1005.44 1005.57
1023.10 1022.91 1022.85 1022.75 1022.54 1022.35 1021.94 1021.59 1021.22 1020.73 1020.34 1019.85 1019.28 1018.56 1018.38 1018.39 1018.38 1018.37 1017.44 1016.66 1015.38 1013.69 1011.41 1010.17 1009.12 1008.88 1009.50 1009.53 1009.50 1008.89 1007.95 1007.81 1007.57 1007.86 1006.73 1006.25 1005.96 1005.96 1005.11 1005.01 1005.15 1005.59 1005.70 1004.67 1005.07 1005.25 1005.31 1005.44 1005.65 1005.61 1005.47 1005.60 1005.67 1005.84
1022.70 1022.52 1022.41 1022.35 1022.24 1021.98 1021.72 1021.38 1020.99 1020.55 1020.16 1019.77 1019.34 1018.96 1018.67 1018.53 1018.46 1018.35 1017.51 1016.42 1015.83 1014.10 1011.71 1008.60 1009.05 1008.96 1009.02 1009.02 1009.14 1008.96 1008.29 1008.57 1008.05 1008.02 1007.05 1006.41 1006.06 1006.66 1005.83 1006.05 1005.68 1005.68 1006.01 1005.23 1005.01 1005.42 1005.73 1005.76 1005.56 1005.70 1005.96 1006.03 1006.08 1006.29
1022.31 1022.10 1022.06 1021.95 1021.82 1021.65 1021.42 1021.10 1020.70 1020.32 1019.95 1019.67 1019.37 1019.07 1018.86 1018.65 1018.43 1017.99 1016.85 1016.28 1015.99 1014.96 1011.97 1009.63 1008.86 1008.00 1008.36 1008.63 1008.82 1008.90 1008.68 1008.16 1007.90 1007.64 1007.07 1006.49 1006.71 1007.03 1006.79 1006.54 1005.41 1005.59 1005.23 1005.14 1004.44 1004.96 1005.34 1005.14 1005.75 1006.09 1006.08 1006.16 1006.28 1006.48
1021.84 1021.70 1021.61 1021.53 1021.38 1021.21 1021.02 1020.76 1020.36 1019.99 1019.79 1019.46 1019.29 1018.97 1018.85 1018.64 1018.33 1017.20 1015.79 1016.24 1015.91 1015.48 1013.58 1010.39 1008.24 1007.96 1008.03 1008.31 1008.47 1008.56 1008.51 1008.17 1008.08 1007.32 1006.98 1006.96 1007.39 1007.43 1006.36 1005.61 1005.52 1005.31 1005.55 1005.35 1005.55 1005.95 1005.89 1006.09 1006.17 1006.18 1006.23 1006.34 1006.47 1006.67
1021.26 1021.17 1021.04 1020.96 1020.92 1020.79 1020.65 1020.34 1019.95 1019.63 1019.40 1019.18 1019.03 1018.78 1018.66 1018.60 1018.17 1017.13 1017.19 1017.23 1016.95 1016.07 1013.69 1010.81 1008.16 1007.45 1007.88 1007.89 1007.95 1008.11 1008.26 1008.15 1008.01 1007.41 1007.12 1006.76 1007.47 1007.88 1006.51 1005.67 1005.78 1005.87 1006.07 1006.19 1006.43 1006.43 1006.23 1006.01 1005.76 1006.35 1006.41 1006.40 1006.77 1006.76
1020.73 1020.63 1020.53 1020.41 1020.29 1020.17 1020.06 1019.87 1019.55 1019.34 1019.08 1018.90 1018.72 1018.48 1018.29 1018.28 1017.91 1017.03 1015.52 1016.33 1017.21 1015.66 1013.87 1011.08 1007.99 1007.49 1007.50 1006.87 1007.04 1007.47 1007.60 1008.05 1007.75 1006.85 1006.96 1006.72 1007.40 1007.36 1006.27 1005.93 1006.13 1006.54 1006.60 1006.60 1006.57 1006.55 1006.05 1006.01 1006.31 1006.39 1006.49 1006.53 1006.50 1006.71
1019.99 1019.92 1019.85 1019.75 1019.66 1019.63 1019.54 1019.47 1019.30 1019.04 1018.81 1018.56 1018.40 1018.09 1017.61 1017.78 1016.85 1015.81 1016.28 1016.32 1016.63 1016.11 1013.65 1010.85 1007.82 1006.24 1007.00 1006.28 1006.31 1007.31 1006.87 1006.67 1006.82 1006.40 1006.09 1006.31 1006.09 1005.98 1005.78 1006.10 1006.61 1007.06 1006.98 1006.85 1006.90 1006.73 1006.54 1006.38 1006.23 1006.20 1006.30 1006.37 1006.38 1006.57
1019.15 1019.14 1019.11 1019.07 1019.05 1019.10 1019.16 1019.12 1019.00 1018.82 1018.59 1018.36 1018.07 1017.15 1016.17 1015.99 1016.21 1016.19 1016.34 1016.25 1016.20 1015.29 1014.36 1011.69 1008.21 1006.73 1006.62 1006.25 1006.29 1006.25 1006.40 1005.70 1005.40 1005.40 1005.58 1005.79 1004.96 1005.22 1006.40 1006.96 1007.51 1007.85 1007.94 1007.74 1007.19 1006.71 1006.58 1006.47 1006.36 1006.27 1006.16 1006.09 1006.22 1006.27
1018.34 1018.37 1018.43 1018.42 1018.46 1018.62 1018.82 1018.90 1018.89 1018.68 1018.30 1018.08 1017.20 1016.08 1015.58 1015.89 1016.03 1015.86 1015.31 1015.10 1014.43 1013.54 1012.52 1010.99 1008.48 1006.72 1006.67 1005.86 1005.43 1005.90 1005.16 1005.02 1004.67 1004.27 1005.00 1004.04 1003.93 1004.94 1006.67 1007.60 1008.23 1008.38 1008.39 1008.19 1008.03 1007.81 1007.56 1007.26 1006.96 1006.56 1006.37 1006.34 1006.31 1006.51
1017.53 1017.69 1017.78 1017.81 1017.90 1018.13 1018.39 1018.47 1018.57 1018.48 1018.25 1018.14 1017.87 1016.76 1015.95 1015.28 1015.02 1014.97 1014.21 1013.52 1012.81 1011.74 1010.82 1009.45 1008.37 1007.52 1006.64 1006.75 1005.96 1006.55 1005.47 1005.19 1003.77 1003.70 1004.26 1003.48 1004.09 1005.79 1006.98 1007.73 1008.37 1008.58 1008.56 1008.37 1008.32 1008.06 1007.81 1007.54 1007.27 1007.00 1006.74 1006.57 1006.50 1006.66
1016.82 1016.97 1017.14 1017.25 1017.41 1017.70 1017.93 1018.08 1018.20 1018.23 1018.13 1017.72 1017.29 1016.23 1015.12 1014.47 1013.97 1013.64 1013.11 1012.42 1011.89 1011.12 1010.08 1008.88 1007.77 1007.44 1007.65 1007.46 1006.42 1006.25 1005.60 1004.43 1004.43 1004.02 1003.32 1003.92 1005.78 1007.05 1007.83 1008.37 1008.64 1008.75 1008.84 1008.81 1008.61 1008.45 1008.14 1007.81 1007.50 1007.19 1006.86 1006.71 1006.68 1006.60
1016.24 1016.42 1016.60 1016.78 1017.05 1017.35 1017.56 1017.79 1018.05 1018.20 1018.38 1017.60 1016.45 1015.75 1014.58 1012.88 1011.66 1011.81 1011.31 1011.43 1011.96 1011.65 1010.76 1009.50 1007.94 1007.75 1007.53 1007.05 1006.73 1006.74 1006.15 1005.84 1004.59 1003.41 1003.60 1005.25 1007.04 1007.87 1008.51 1008.96 1008.91 1008.93 1009.02 1008.98 1008.86 1008.73 1008.45 1008.18 1007.88 1007.56 1007.14 1006.86 1006.74 1006.58
1015.71 1015.94 1016.11 1016.45 1016.76 1017.07 1017.38 1017.72 1018.03 1018.25 1018.23 1017.49 1016.29 1014.83 1012.87 1011.26 1010.83 1010.60 1010.68 1010.91 1011.71 1011.76 1011.27 1009.88 1009.10 1008.51 1007.97 1007.48 1006.78 1006.69 1006.95 1005.73 1004.74 1004.28 1005.17 1006.42 1007.89 1008.63 1009.03 1009.23 1009.27 1009.32 1009.30 1009.18 1009.16 1008.96 1008.81 1008.56 1008.18 1007.74 1007.51 1007.25 1006.76 1006.72
1015.51 1015.88 1016.01 1016.11 1016.51 1016.97 1017.34 1017.73 1017.95 1018.20 1017.85 1017.25 1016.03 1014.55 1013.27 1011.61 1010.49 1010.44 1010.62 1010.45 1011.15 1011.83 1011.54 1010.57 1009.03 1008.66 1008.10 1007.85 1007.62 1006.37 1005.92 1005.20 1005.28 1006.17 1006.96 1008.02 1008.82 1009.19 1009.53 1009.60 1009.75 1009.86 1009.74 1009.52 1009.42 1009.32 1009.09 1008.84 1008.49 1008.10 1007.67 1007.13 1006.82 1006.68
1015.45 1015.45 1015.47 1015.88 1016.42 1016.94 1017.33 1017.59 1017.82 1017.70 1017.28 1016.60 1015.14 1013.97 1013.48 1013.13 1011.86 1011.76 1011.95 1011.90 1012.29 1011.91 1011.66 1010.80 1009.78 1008.86 1008.55 1008.17 1007.25 1007.20 1006.23 1005.73 1005.95 1006.78 1007.52 1008.38 1009.05 1009.52 1009.81 1009.93 1009.99 1010.11 1010.06 1010.02 1009.88 1009.61 1009.35 1009.06 1008.64 1008.15 1007.62 1007.41 1007.14 1006.84
1015.24 1015.28 1015.43 1015.90 1016.45 1017.09 1017.51 1017.59 1017.43 1017.01 1016.47 1015.86 1015.04 1014.05 1013.14 1012.55 1012.54 1012.43 1012.56 1012.70 1012.90 1012.46 1011.83 1011.51 1011.01 1009.73 1008.88 1008.54 1008.64 1008.68 1008.04 1007.45 1007.38 1007.70 1008.33 1009.08 1009.55 1009.88 1009.91 1010.03 1010.22 1010.25 1010.23 1010.16 1009.97 1009.72 1009.37 1009.18 1008.80 1008.02 1007.91 1007.52 1007.18 1006.52
1015.03 1015.26 1015.60 1016.08 1016.42 1016.76 1017.16 1017.45 1017.41 1016.60 1015.77 1015.16 1014.52 1014.11 1013.42 1012.78 1013.04 1013.32 1013.12 1013.19 1013.35 1013.20 1012.76 1011.23 1010.97 1010.00 1009.34 1009.11 1009.20 1009.49 1009.51 1009.37 1009.28 1009.21 1009.55 1009.83 1009.86 1009.98 1010.11 1010.18 1010.12 1010.07 1010.13 1010.05 1009.87 1009.50 1009.34 1009.24 1008.88 1008.38 1007.96 1007.72 1007.29 1006.82
1015.19 1015.55 1015.89 1016.30 1016.49 1016.74 1016.92 1016.98 1016.97 1016.12 1015.32 1014.86 1014.11 1013.71 1013.39 1012.51 1012.57 1012.90 1012.94 1013.14 1013.15 1012.95 1011.73 1011.08 1010.59 1010.23 1009.66 1009.97 1009.87 1010.05 1010.26 1010.00 1009.72 1009.68 1009.73 1010.07 1010.26 1010.36 1010.18 1010.02 1009.73 1009.74 1009.63 1009.52 1009.41 1009.31 1008.84 1008.64 1008.32 1008.12 1008.07 1008.36 1008.25 1007.34
1015.46 1015.83 1016.32 1016.51 1016.77 1016.67 1016.74 1016.47 1016.23 1015.72 1014.82 1014.02 1013.22 1012.81 1012.07 1011.85 1012.12 1012.10 1012.06 1012.18 1012.48 1012.03 1011.75 1010.69 1010.34 1010.24 1010.10 1010.23 1010.09 1009.79 1009.72 1009.99 1009.81 1009.56 1009.39 1009.45 1009.44 1009.51 1009.43 1009.54 1009.66 1009.50 1009.32 1009.07 1008.86 1008.66 1008.70 1008.32 1008.24 1008.30 1008.24 1008.23 1007.99 1007.72
1015.57 1015.91 1016.40 1016.66 1016.38 1016.24 1016.28 1016.37 1016.08 1015.53 1014.93 1013.41 1012.54 1011.99 1011.16 1010.51 1010.10 1009.81 1009.71 1010.21 1009.48 1008.92 1009.27 1009.90 1009.86 1009.56 1009.38 1009.66 1009.67 1009.46 1009.33 1009.61 1009.72 1009.73 1009.74 1009.61 1009.28 1008.96 1008.76 1008.72 1008.76 1008.76 1008.77 1008.76 1008.66 1008.44 1008.26 1008.13 1008.14 1008.09 1008.08 1008.27 1008.48 1007.89
1015.89 1016.22 1016.48 1016.22 1015.95 1015.95 1015.76 1015.42 1015.21 1014.34 1013.66 1012.78 1011.89 1011.20 1010.32 1009.80 1009.37 1009.58 1008.87 1008.13 1007.98 1007.82 1008.15 1008.37 1008.36 1008.39 1008.63 1008.75 1009.00 1009.01 1009.10 1009.30 1009.01 1008.90 1008.73 1008.63 1008.56 1008.55 1008.50 1008.42 1008.35 1008.40 1008.33 1008.17 1008.17 1008.17 1008.04 1008.07 1008.15 1008.28 1008.10 1008.38 1008.28 1007.36
1016.17 1016.31 1015.96 1015.62 1015.65 1015.20 1014.77 1014.42 1014.11 1013.88 1013.29 1012.13 1011.29 1010.22 1009.48 1009.15 1009.14 1008.86 1007.86 1007.19 1006.99 1007.37 1007.63 1007.92 1008.01 1007.83 1008.19 1008.50 1008.16 1008.33 1008.37 1008.65 1008.55 1008.27 1008.10 1008.00 1007.87 1007.79 1007.80 1007.88 1007.73 1007.83 1007.99 1008.04 1007.97 1007.79 1007.70 1007.62 1007.78 1007.61 1007.38 1007.29 1007.02 1006.75
1016.27 1016.09 1015.92 1015.41 1014.85 1014.59 1013.88 1013.23 1012.90 1012.67 1012.32 1011.80 1010.80 1009.59 1009.04 1009.07 1008.53 1007.70 1006.95 1006.53 1006.65 1006.67 1006.82 1006.95 1006.99 1006.98 1006.84 1006.94 1006.90 1007.15 1007.62 1007.69 1007.57 1007.50 1007.30 1007.28 1007.46 1007.46 1007.44 1007.31 1007.25 1007.29 1007.29 1007.34 1007.35 1007.19 1007.19 1007.24 1007.23 1007.04 1006.88 1006.89 1006.82 1006.67
1015.51 1015.22 1015.13 1014.21 1014.18 1013.91 1013.17 1012.68 1012.26 1011.85 1011.25 1010.63 1009.85 1009.30 1008.94 1008.47 1007.86 1007.02 1006.65 1006.96 1007.09 1007.11 1006.89 1006.63 1006.54 1006.51 1006.71 1006.92 1006.73 1006.80 1007.14 1007.32 1007.38 1007.11 1006.82 1007.03 1007.06 1006.93 1006.73 1006.72 1006.75 1006.71 1006.65 1006.66 1006.96 1006.86 1006.87 1006.86 1006.81 1006.86 1006.63 1006.60 1006.77 1006.92
1014.70 1014.09 1013.87 1013.60 1013.42 1013.41 1012.91 1012.52 1012.28 1012.01 1010.72 1009.67 1009.10 1008.65 1008.39 1007.86 1007.20 1007.28 1007.52 1007.41 1007.03 1006.99 1007.07 1006.83 1006.79 1006.54 1006.54 1006.64 1006.97 1007.15 1007.13 1007.18 1007.18 1007.01 1007.01 1006.92 1006.78 1006.79 1006.77 1006.64 1006.57 1006.64 1006.68 1006.76 1006.88 1006.70 1006.61 1006.59 1006.52 1006.49 1006.51 1006.58 1006.34 1006.18
1014.11 1013.61 1013.21 1013.48 1013.49 1013.39 1013.09 1012.73 1011.80 1010.62 1009.61 1009.07 1008.81 1008.09 1007.69 1007.32 1007.57 1007.83 1007.66 1007.34 1007.21 1007.14 1007.09 1007.11 1007.11 1006.96 1006.79 1006.72 1006.77 1006.86 1006.74 1006.68 1006.64 1006.66 1006.48 1006.46 1006.40 1006.36 1006.66 1006.64 1006.67 1007.13 1006.97 1006.70 1006.55 1006.44 1006.38 1006.42 1006.57 1006.51 1006.36 1006.16 1006.01 1006.10
1013.27 1012.82 1012.72 1012.53 1012.60 1012.19 1011.74 1010.68 1009.77 1009.48 1009.26 1008.98 1008.46 1008.03 1007.88 1007.58 1007.23 1007.02 1006.98 1006.99 1007.03 1006.99 1006.70 1006.37 1006.24 1006.60 1006.57 1006.53 1006.55 1006.55 1006.48 1006.25 1006.04 1006.01 1005.99 1005.88 1005.85 1005.78 1005.96 1006.23 1006.34 1006.22 1005.95 1005.64 1006.50 1006.53 1006.46 1006.83 1006.93 1006.74 1006.38 1006.22 1006.11 1006.07
1011.69 1011.67 1011.44 1011.14 1010.99 1010.51 1010.00 1009.42 1008.98 1008.47 1008.71 1008.77 1008.46 1008.09 1007.53 1006.97 1006.67 1006.83 1006.81 1006.77 1006.72 1006.47 1006.36 1006.32 1006.17 1006.15 1005.99 1005.88 1005.77 1006.05 1006.44 1006.39 1006.29 1006.16 1006.49 1006.45 1006.50 1006.24 1006.33 1006.23 1006.07 1005.84 1005.67 1005.51 1005.59 1005.53 1007.00 1007.17 1006.88 1006.53 1006.51 1006.28 1006.37 1006.51
1011.19 1010.97 1010.70 1010.32 1009.75 1009.15 1008.69 1008.56 1008.36 1008.12 1008.08 1007.90 1007.69 1007.63 1007.24 1006.84 1006.68 1006.68 1006.88 1006.94 1006.83 1006.65 1006.43 1006.16 1006.01 1006.00 1006.08 1006.17 1006.38 1006.71 1006.47 1006.89 1006.98 1007.02 1007.35 1006.81 1006.41 1006.24 1006.52 1006.66 1006.49 1005.80 1005.49 1005.42 1005.60 1005.85 1006.16 1006.28 1006.32 1006.17 1006.12 1006.05 1006.00 1006.27
1010.64 1010.40 1010.06 1009.68 1009.17 1008.76 1008.74 1008.40 1008.10 1008.01 1007.85 1007.88 1007.60 1007.82 1007.50 1007.22 1006.81 1006.67 1007.32 1007.08 1006.70 1006.87 1007.22 1006.93 1006.62 1006.81 1006.68 1006.68 1006.78 1007.07 1007.88 1007.08 1007.00 1006.98 1007.05 1006.82 1006.66 1006.69 1006.65 1006.43 1006.26 1005.88 1005.93 1005.97 1005.89 1005.96 1006.17 1006.12 1006.16 1006.28 1006.31 1005.91 1006.05 1006.25
1010.31 1010.07 1009.93 1009.63 1009.15 1008.71 1008.48 1008.60 1008.18 1008.22 1008.55 1008.92 1008.91 1008.92 1008.57 1008.41 1007.90 1008.17 1007.90 1007.73 1007.80 1007.71 1007.74 1007.49 1007.34 1007.36 1007.52 1007.42 1007.40 1007.43 1007.62 1007.35 1007.54 1007.87 1007.97 1007.98 1007.91 1007.69 1007.32 1006.53 1006.13 1005.95 1005.83 1006.08 1006.09 1006.02 1005.96 1006.03 1006.27 1006.06 1006.21 1006.41 1006.42 1006.35
Wind_Speed
12 13 13 14 15 14 14 15 16 17 18 17 17 14 13 12 6 6 5 3 5 4 6 4 4 5 4 5 5 6 6 7 5 5 4 3 4 3 4 3 5 8 9 6 3 5 6 3 3 6 7 4 3 7
11 12 11 12 14 14 14 14 15 16 17 19 16 14 11 9 3 4 5 1 4 6 7 5 9 10 10 6 4 3 5 3 3 3 3 1 4 3 3 6 5 5 5 2 5 4 5 1 2 3 3 4 4 8
11 11 11 11 13 14 14 14 15 15 16 17 17 13 7 3 2 3 4 5 5 5 9 10 10 11 13 15 10 5 3 3 3 4 3 2 3 3 5 2 2 3 1 3 5 6 5 4 6 6 6 8 7 7
12 12 11 10 12 13 14 15 14 14 15 15 15 10 8 5 4 6 3 3 5 4 6 3 2 7 3 9 11 16 7 4 2 3 3 3 3 2 1 4 5 5 4 4 3 5 3 5 5 7 6 5 8 6
11 10 11 11 12 13 14 14 14 13 13 13 14 7 7 7 7 8 7 5 5 6 5 6 12 10 9 10 10 11 12 9 5 5 5 5 2 4 1 2 7 7 5 6 2 7 6 6 8 4 5 5 4 4
12 12 12 12 13 13 13 14 14 12 12 11 10 9 7 7 9 6 5 1 5 4 5 5 4 6 6 8 11 10 11 7 5 4 4 3 2 5 4 5 4 6 7 7 3 1 3 3 2 3 6 6 6 4
13 14 14 13 14 13 13 14 14 10 10 10 10 9 8 8 6 5 5 3 3 5 5 5 5 6 6 9 7 6 9 6 7 5 5 5 5 5 5 7 5 2 2 3 4 4 6 6 4 1 4 8 6 6
15 15 14 14 14 13 13 13 12 9 9 10 10 10 9 10 11 8 5 12 4 5 4 5 4 4 10 7 8 6 7 7 7 7 2 7 5 5 6 8 6 5 5 6 6 8 9 3 4 6 4 8 10 9
16 15 14 14 14 12 11 11 10 9 8 9 12 9 4 3 4 2 9 7 3 5 4 5 7 6 7 7 4 6 6 7 3 8 9 6 8 7 8 10 7 4 2 1 3 7 10 11 12 11 9 10 12 10
16 15 14 13 12 11 10 8 8 9 8 9 7 4 4 4 3 3 3 4 5 4 4 4 6 4 6 8 9 7 6 9 7 10 5 8 13 12 7 6 5 4 2 3 4 7 7 5 6 9 9 11 12 11
14 14 12 12 11 10 8 8 6 8 6 3 4 3 3 3 3 2 4 5 5 5 5 6 12 7 4 8 8 6 6 6 7 9 9 8 10 13 11 8 6 5 4 5 6 7 8 8 6 5 7 8 9 10
14 12 12 11 10 10 9 7 5 3 2 5 5 5 3 4 4 3 4 3 5 5 7 12 17 14 4 2 5 5 6 6 7 10 8 11 5 11 11 9 7 6 3 3 4 7 7 8 8 8 7 6 8 10
13 12 11 10 10 10 9 7 6 5 4 4 4 3 4 5 5 5 5 4 3 1 3 8 13 11 5 6 4 5 7 8 3 7 6 1 11 9 8 7 7 5 3 2 1 1 3 4 5 7 9 9 9 9
12 10 10 10 10 10 7 8 5 3 1 3 4 4 6 6 7 5 7 3 2 3 7 6 9 5 6 10 5 4 4 2 7 12 15 8 10 9 7 6 6 5 3 2 1 2 2 4 4 4 6 7 9 10
9 8 8 9 9 9 8 9 8 2 2 4 4 6 8 7 3 3 4 4 3 3 6 3 1 4 5 3 3 6 4 7 5 8 5 9 10 8 8 6 5 3 3 2 3 4 5 6 6 6 6 7 6 8
5 5 6 9 11 10 11 8 3 1 3 3 5 3 8 9 8 6 5 5 5 0 5 4 3 4 5 5 6 10 7 6 5 5 7 9 9 8 6 5 4 3 2 2 3 5 5 6 7 8 8 7 6 7
11 2 9 12 13 12 10 2 2 4 3 4 4 7 2 7 6 3 4 7 8 2 2 4 4 1 1 2 6 1 2 6 9 11 9 11 10 8 6 5 4 2 3 4 5 5 6 7 8 7 6 7 8 8
1 2 11 14 10 7 1 1 2 3 6 5 5 3 6 2 3 2 5 6 7 6 1 3 5 4 3 0 2 2 4 7 7 8 8 8 6 5 3 3 2 1 2 4 5 6 5 6 7 5 7 7 9 8
4 6 15 17 5 3 3 4 2 3 5 4 3 3 5 2 2 1 5 6 2 3 5 3 3 3 1 3 7 3 2 3 3 5 5 4 2 1 0 1 3 2 4 5 6 5 6 7 7 6 6 7 7 8
12 8 17 12 3 2 3 2 1 4 3 2 4 3 4 5 2 2 1 6 1 4 4 3 1 3 2 3 4 5 1 3 3 0 1 3 3 4 3 3 3 4 5 5 6 4 5 5 5 5 5 6 7 7
5 9 13 3 1 1 2 1 3 3 4 4 3 5 5 7 6 6 5 6 4 1 3 3 2 2 7 4 4 9 10 9 7 4 1 3 3 2 2 3 5 5 5 5 5 5 5 5 5 6 6 6 7 8
3 7 3 1 3 3 2 2 3 3 3 4 4 6 5 5 7 8 5 9 9 7 9 6 5 6 10 10 9 7 3 5 5 4 4 2 5 5 4 4 4 5 5 5 6 6 6 6 5 6 6 7 7 9
6 2 1 4 3 1 3 3 4 4 4 3 3 4 4 3 2 1 5 6 5 4 5 6 8 11 11 12 11 9 8 7 6 6 5 6 6 6 6 6 5 5 6 5 5 6 7 6 5 6 6 6 8 9
3 3 4 3 3 2 2 4 3 3 3 4 3 4 3 2 2 3 4 2 2 2 4 6 6 7 8 7 8 8 8 8 8 7 6 6 6 7 5 5 5 5 5 5 6 6 7 8 6 7 8 8 9 9
2 2 2 3 4 4 5 4 4 3 3 5 4 4 0 1 3 3 2 2 3 2 2 4 5 5 5 5 6 5 5 5 5 6 6 6 5 5 5 6 5 6 6 6 7 7 7 7 7 9 9 10 11 12
2 5 4 3 3 4 3 3 2 4 4 3 4 2 2 3 3 0 3 4 5 3 3 3 3 3 4 2 2 4 5 4 4 5 3 4 5 5 5 5 6 6 7 4 6 8 8 8 8 10 10 11 9 11
2 3 4 3 2 3 4 3 3 3 5 3 3 3 3 3 2 4 3 2 2 3 4 4 3 2 3 3 2 2 3 3 3 3 4 4 5 5 5 6 8 7 8 8 8 9 9 9 9 9 9 9 11 11
3 4 3 1 2 1 2 2 4 5 4 2 3 3 2 3 4 2 1 2 2 2 2 1 2 3 2 1 1 2 3 3 4 5 5 5 5 4 3 3 4 1 7 7 8 9 9 8 8 9 10 11 11 11
5 4 5 6 6 6 6 5 3 2 2 2 3 3 3 1 2 2 3 2 2 3 4 4 4 4 4 4 4 3 4 4 5 5 6 4 5 4 3 3 6 7 8 8 8 7 9 7 7 8 9 10 10 10
3 4 4 3 4 2 2 3 4 3 1 4 3 5 6 4 2 1 3 2 3 4 4 5 5 4 4 3 1 2 2 2 2 4 4 2 3 3 4 5 6 6 6 8 8 3 6 7 6 7 6 7 5 4
2 3 5 5 4 3 3 4 5 5 5 6 6 6 7 5 5 1 2 2 3 4 4 4 4 4 4 4 1 3 1 1 1 3 4 6 5 4 4 5 7 7 6 8 7 4 5 6 6 6 7 8 7 3
3 6 5 7 5 2 4 4 4 4 4 4 5 3 5 5 6 3 3 4 3 4 4 6 5 3 2 2 1 1 1 4 3 3 4 4 4 4 4 5 4 6 7 8 3 1 3 3 4 4 5 9 6 5
4 4 5 5 5 4 0 4 3 4 4 4 3 6 6 4 3 2 2 3 4 5 5 5 5 4 3 4 6 6 4 5 8 2 4 6 8 8 7 7 6 6 6 4 6 6 5 4 4 1 1 1 3 4
Wind_Direction
305 306 308 315 318 317 320 323 326 328 329 323 314 313 312 317 335 327 299 294 306 290 288 244 246 246 209 245 270 75 239 195 227 242 263 128 252 130 233 76 189 186 202 202 215 241 237 72 221 282 27 97 113 143
308 307 302 312 316 316 317 321 324 323 329 327 319 310 294 307 319 323 268 102 311 263 320 313 286 278 267 301 300 201 343 306 1 269 221 227 191 194 316 165 180 212 328 55 307 75 86 66 346 7 29 81 121 151
296 299 302 307 312 313 315 318 320 324 328 331 330 321 295 334 4 313 284 301 253 270 266 238 241 228 223 238 253 280 181 312 220 345 331 4 246 268 203 117 168 146 338 232 206 137 129 105 127 116 106 102 116 132
296 298 293 302 308 308 309 313 315 320 324 330 334 352 13 4 345 308 268 331 273 293 274 189 116 222 209 204 225 225 282 234 305 242 249 257 256 248 140 38 282 45 177 186 166 147 168 185 173 143 125 107 99 112
293 298 298 300 302 302 303 308 309 313 320 326 334 336 344 339 326 286 263 242 261 289 326 308 304 244 209 214 210 210 217 224 208 204 227 228 71 226 181 268 235 186 183 222 290 121 237 140 170 179 174 173 145 135
284 284 287 290 295 297 298 302 308 303 309 313 315 321 324 326 323 279 226 174 243 237 268 268 3 234 194 198 201 206 210 212 237 232 229 218 58 252 223 233 266 231 248 260 263 291 213 121 171 210 229 214 199 203
282 284 280 280 286 288 293 299 306 303 297 298 300 300 304 306 296 266 323 15 348 241 241 245 233 151 202 188 186 188 199 206 236 217 229 226 184 224 250 238 153 158 200 206 213 208 210 207 183 9 259 246 191 218
270 272 274 276 277 276 282 294 304 307 302 293 293 290 282 286 271 260 215 212 218 253 253 256 230 209 185 185 181 175 177 196 201 234 166 218 138 228 249 223 218 242 254 235 222 225 268 269 261 282 284 230 212 206
264 266 269 267 266 275 274 296 301 304 303 307 294 285 270 216 233 62 86 124 194 298 261 225 227 178 164 204 185 186 202 196 139 220 217 205 200 214 211 201 193 160 224 130 236 241 249 261 268 268 239 216 218 207
261 262 265 267 262 259 276 285 303 309 303 311 273 230 210 187 343 209 180 191 194 212 221 258 247 222 217 171 192 178 195 225 199 210 178 232 235 211 171 177 164 183 233 273 257 225 215 246 252 233 222 216 213 214
264 256 260 259 250 246 250 263 278 308 276 238 211 236 8 115 187 217 224 211 179 208 190 218 234 213 179 205 187 224 179 203 228 185 211 213 220 194 168 177 184 196 233 254 267 280 280 279 283 263 235 231 225 229
259 250 252 253 239 228 233 243 241 253 308 332 309 280 269 230 215 219 239 225 220 211 181 189 206 229 184 248 233 171 216 190 236 147 211 229 158 122 163 173 174 184 201 244 265 262 269 273 260 255 255 246 232 231
250 242 241 241 224 220 227 217 227 270 317 272 219 232 214 205 231 218 201 222 241 221 215 210 189 201 189 231 220 208 217 215 104 214 220 261 122 142 146 161 160 151 156 171 174 298 273 281 273 257 253 246 245 240
235 239 231 224 205 216 216 189 192 127 75 257 211 226 225 207 226 184 236 161 360 303 323 256 193 163 204 192 172 218 217 199 235 219 210 134 156 144 148 150 167 142 131 116 70 12 356 353 335 300 275 259 250 237
218 232 224 196 190 189 165 150 133 110 265 252 224 222 226 246 264 283 261 274 162 285 303 270 136 175 177 187 229 188 179 233 223 205 106 126 146 152 149 149 133 117 85 69 17 358 346 341 327 330 343 319 282 245
169 139 197 189 170 167 140 130 135 132 232 248 254 249 273 273 235 238 281 274 99 210 296 261 216 174 175 183 192 207 198 204 165 144 128 131 141 135 134 120 101 60 19 8 13 354 339 335 320 320 316 314 295 264
163 228 179 173 159 147 138 144 156 211 236 232 245 284 218 291 286 37 37 359 350 190 249 311 274 187 50 206 201 116 312 100 124 135 141 127 135 133 129 123 119 88 20 355 339 333 329 318 318 307 310 323 317 295
157 186 164 152 134 127 99 170 255 229 230 239 258 299 295 270 301 347 16 18 358 354 312 209 306 235 181 201 99 98 91 85 86 102 113 120 123 124 133 120 110 55 354 335 330 313 291 308 299 312 315 307 301 282
161 149 155 142 132 118 161 183 212 262 237 267 253 267 267 256 105 35 3 324 321 297 272 200 215 275 188 110 116 72 43 76 89 81 91 84 91 91 182 286 294 292 323 320 318 317 317 307 298 301 311 311 324 329
151 149 147 141 86 150 176 194 247 245 245 310 258 202 263 281 149 225 210 289 16 311 271 222 287 324 78 119 114 111 30 330 355 36 112 134 175 207 213 261 278 310 286 295 285 257 287 309 300 306 324 331 302 303
124 146 134 97 58 83 324 321 224 251 296 250 256 250 247 201 219 223 227 204 199 170 273 274 165 221 155 168 234 198 174 190 200 217 175 183 168 251 264 218 234 261 274 288 293 296 244 299 310 296 300 307 305 310
85 113 108 197 221 188 228 214 269 320 268 256 254 221 260 239 232 216 203 199 232 219 185 175 207 200 160 176 202 224 192 198 226 237 231 205 247 245 242 256 255 268 272 273 279 289 299 300 308 305 300 307 303 289
88 62 63 213 206 186 248 199 240 214 250 247 253 231 218 231 199 160 229 220 235 228 218 217 217 220 213 210 209 230 225 237 249 247 245 242 244 253 258 265 260 262 273 268 267 278 287 308 284 269 286 292 287 284
130 179 193 203 201 260 227 226 222 209 263 257 237 253 228 238 141 225 263 255 175 130 193 202 216 218 200 230 226 227 226 212 237 246 253 255 257 255 242 255 264 258 260 275 285 287 284 288 293 280 277 274 281 296
202 160 162 250 212 242 237 226 214 221 248 214 259 256 185 198 240 231 235 108 103 82 93 171 193 211 214 202 196 185 186 226 234 240 238 228 246 262 255 249 248 258 261 258 268 281 280 284 284 290 294 290 299 309
229 181 210 205 177 245 244 276 251 257 261 251 227 252 240 252 255 192 84 37 34 43 56 56 65 130 143 164 180 168 152 180 199 237 211 203 224 243 262 281 282 279 296 250 268 283 284 286 287 286 288 303 291 289
251 208 209 255 251 273 288 320 229 263 272 239 250 226 219 234 207 76 54 26 70 53 31 17 20 23 54 98 139 166 181 194 236 307 312 271 260 254 262 276 287 307 320 299 280 275 278 279 289 295 301 296 293 302
267 295 247 86 290 245 241 265 263 246 257 270 262 257 305 1 59 65 171 258 348 344 341 291 267 266 282 293 293 257 242 229 231 243 240 220 227 246 253 249 265 192 281 280 277 268 264 269 287 285 293 303 309 312
230 212 216 221 206 211 213 240 221 227 333 290 295 341 14 287 187 337 12 322 299 294 288 273 189 209 241 228 228 244 255 260 271 273 267 239 211 196 174 314 308 309 310 308 185 224 275 294 280 285 301 303 314 316
221 196 253 243 240 256 252 236 286 324 214 244 266 275 267 253 246 18 308 285 274 284 307 307 304 264 272 277 243 103 108 321 324 344 324 307 287 338 329 319 310 302 306 312 295 224 164 232 222 248 275 300 316 341
275 226 241 245 267 261 269 313 293 269 265 267 260 267 290 323 305 181 297 319 296 274 279 279 270 251 257 275 293 265 303 359 356 315 332 316 298 318 332 332 313 305 316 325 321 304 271 233 259 278 287 294 290 277
232 240 254 267 276 326 302 286 307 303 313 302 314 331 293 270 268 86 23 317 308 2 11 318 346 315 260 193 119 55 247 312 270 271 282 317 330 333 299 288 287 319 348 329 293 74 69 349 303 284 289 293 284 247
253 253 258 273 268 264 118 301 290 338 14 340 315 326 325 323 333 22 327 6 357 344 332 348 345 9 27 341 7 0 327 312 349 6 278 286 292 307 304 291 311 310 306 308 317 282 289 341 358 63 298 64 328 331